metlocid,date_time,avg_swradin,std_swradin,min_swradin,max_swradin,n_swradin,avg_swradout,std_swradout,min_swradout,max_swradout,n_swradout,avg_thmir,std_thmir,min_thmir,max_thmir,n_thmir,avg_netrad,std_netrad,min_netrad,max_netrad,n_netrad,n_comments
CAAM,12/1/94,310.6896012,181.3879947,42,889.2,2183,200.9830198,135.3256248,0,661.1,2073,,,,,0,28.46373795,49.20106205,-181.04,284.68,2183,112
CAAM,1/1/95,317.6556605,191.557658,26.7,897.5,1484,225.2649831,137.8272425,17,653.4,1485,,,,,0,26.02502341,49.19510273,-129.36,241.47,1485,1
CAAM,11/1/95,334.9091995,177.5288186,34.7,864,500,192.5089995,110.1872588,20.3,483.9,500,-4.735070711,2.670356805,-14.09,0.66,990,78.24719195,99.23403785,-157.8,416.2,990,490
CAAM,12/1/95,321.4680916,189.9657872,22.4,872,2971,199.0381145,119.3031098,12.7,656.2,2970,-2.404732773,1.897898774,-9.97,2.23,2975,71.71379618,86.87507295,-199.6,432.8,2974,11
CAAM,1/1/96,267.5326557,172.8787929,18.6,880,2877,187.8613531,120.4298946,13.7,622.8,2875,-4.436807174,1.683987834,-9.1,1.47,949,38.3834758,63.95483416,-179.2,273.9,2877,1371
CAAM,2/1/96,180.4177228,163.3582844,0.22,686.1,2784,126.3115625,112.039239,0.2,441.3,2784,,,,,0,7.566512235,75.25794084,-108.4,294.8,2784,0
CAAM,3/1/96,32.61377018,53.6099616,-0.1,398.9,2976,31.25394827,47.93697431,0,252.5,2976,,,,,0,-25.90652556,32.95080021,-117.4,97.3,2976,12
CAAM,4/1/96,3.202440977,7.229220849,0,62.81,2880,2.332406254,5.008880855,0,40.01,2880,,,,,0,-32.63376388,24.26721302,-87.4,21.02,2880,0
CAAM,5/1/96,0.041693548,0.100522107,0,1.05,2976,0.080910619,0.109044178,0,1,2976,,,,,0,-25.45402555,23.47861086,-75.3,6.44,2976,0
CAAM,6/1/96,0.034263889,0.057267401,-0.01,0.2,2880,0.062961806,0.078363862,0,0.2,2880,,,,,0,-38.68692014,24.47518275,-92,15.39,2880,1
CAAM,7/1/96,0.034415323,0.056958138,-0.01,0.2,2976,0.073823925,0.082868498,0,0.2,2976,,,,,0,-51.85594426,20.53731643,-82.5,2.52,2976,1
CAAM,8/1/96,0.240291061,0.70880637,0,7.73,1924,0.25631497,0.790409878,0,11.37,1924,,,,,0,-38.46986492,25.33417832,-84.2,27.42,1924,0
CAAM,11/1/96,285.7225,149.0843091,35,649.8,200,173.8994998,91.02544599,41.8,403.3,200,,,,,0,56.23380005,61.93139188,-171.36,177.05,200,0
CAAM,12/1/96,326.9214382,189.4104345,33.4,886,2976,241.2923983,144.3786697,20.7,649.7,2973,,,,,0,37.73388288,65.2408183,-162.95,323.95,2972,7
CAAM,1/1/97,294.6697563,194.3537581,26.3,889,1478,237.6642468,151.1987327,24.3,673.7,1474,,,,,0,23.10102914,56.22774856,-173.33,211,1477,5
CAAM,1/1/98,263.4288197,178.8474448,22.2,782,2474,247.7979387,157.8474614,10.9,674.7,2474,-8.876937026,2.62543851,-19.25,-0.89,2318,-0.444616021,47.36321106,-108,137.4,2474,8
CAAM,2/1/98,140.6840774,150.5760318,0.1,887,2688,150.8327374,141.6802375,0,661.7,2685,,,,,0,-12.76568664,34.58958311,-119,145.4,2687,4
CAAM,3/1/98,36.9810148,60.98453271,0,338.1,2976,37.58360212,57.9766843,0,304.1,2976,,,,,0,-29.19871976,26.3844813,-93.9,57.12,2976,0
CAAM,4/1/98,2.989062502,6.902493763,0,67,2880,3.713645828,9.988033332,0,108.6,2880,,,,,0,-32.53572917,23.94190559,-71.4,16.24,2880,0
CAAM,5/1/98,0.01155914,0.062771738,0,0.6,2976,0.010786291,0.060982876,0,0.6,2976,,,,,0,-26.42405242,19.20296839,-70,10.27,2976,0
CAAM,6/1/98,0.000277778,0.005264052,0,0.1,2880,0.001215278,0.011271177,0,0.2,2880,,,,,0,-30.0181632,23.08414765,-87.7,9.58,2880,0
CAAM,7/1/98,0.000268817,0.005178655,0,0.1,2976,0.000369624,0.007091086,0,0.2,2976,,,,,0,-31.68810821,23.34667384,-84,8.1,2976,0
CAAM,8/1/98,1.017338711,3.293632536,0,29.4,2976,0.741196239,2.225980242,0,16.3,2976,,,,,0,-32.63709003,19.95111127,-82.6,8.14,2976,0
CAAM,9/1/98,18.44149304,32.47881646,0,261.8,2880,16.05746528,27.45024751,0,203.8,2880,,,,,0,-21.20728821,21.62141154,-59.66,52.85,2880,0
CAAM,10/1/98,119.8643144,136.2545532,0,500.6,2976,76.26911957,83.68635769,0,296.6,2976,,,,,0,-2.859408404,51.22035503,-104.9,143.1,2975,1
CAAM,11/1/98,282.9762727,183.2685411,9.6,681.6,2849,179.4207793,110.7345466,6.5,420.4,2849,,,,,0,41.86319763,78.75917034,-84.2,232.5,2849,31
CAAM,12/1/98,360.8328446,195.5581413,27.6,856,2524,228.2563787,115.1596988,17.6,574.6,2524,-3.494659991,1.51500319,-9.17,0.15,1397,70.64958398,74.79398974,-179.8,274.3,2524,1579
CAAM,1/1/99,261.6488232,175.9636809,17.8,895,2974,189.8542185,127.4559814,13.2,657,2975,-5.667262817,2.791708921,-11.19,-0.35,1929,26.65946555,49.60622006,-129.1,221.6,2975,1048
CAAM,2/1/99,186.6870533,171.6206297,0.2,675.3,2688,123.9872025,111.7116334,0.2,486.8,2688,-9.363128817,0.10408433,-10,-9.26,2688,-4.720896576,47.99868794,-94,124.9,2688,211
CAAM,3/1/99,43.06213033,68.69502086,0,389.8,2976,34.10957663,59.09933648,0,333,2976,-9.360537907,0.035592162,-9.43,-9.27,2976,-37.82676747,22.31836815,-147.2,33.01,2976,837
CAAM,4/1/99,5.096631946,12.38705497,0,92.3,2880,3.269305561,7.767315305,0,54.8,2880,-9.42094462,0.064423588,-9.51,-9.27,2880,-28.00739583,17.43776962,-57.58,11.54,2880,1342
CAAM,5/1/99,0.015725807,0.098976329,0,1.2,2976,0.009274194,0.057698237,0,0.7,2976,-9.432580813,0.064547935,-9.58,-9.27,2976,-39.17367268,15.96179786,-71,10.33,2976,2035
CAAM,6/1/99,0,0,0,0,2880,6.94E-05,0.002634774,0,0.1,2880,-9.385788447,0.058813645,-9.5,-9.26,2880,-24.04701735,21.88904265,-76.4,9.62,2880,1855
CAAM,7/1/99,0.000403226,0.006338256,0,0.1,2976,0,0,0,0,2976,-9.381102393,0.070241243,-9.51,-9.27,2976,-30.8561324,19.20479522,-66.14,7.67,2976,1854
CAAM,8/1/99,1.227654572,3.762339442,0,28,2976,0.651680107,1.981788646,0,14.2,2976,-9.441424905,0.056640195,-9.54,-9.27,2976,-35.48319892,17.62273849,-71.6,3,2976,1802
CAAM,9/1/99,21.73881947,37.70119158,0,223.1,2880,16.165,30.1832896,0,180.2,2880,-9.372705104,0.05606096,-9.5,-9.26,2880,-19.78584028,23.55064202,-71.8,31.96,2880,780
CAAM,10/1/99,131.9904234,153.5651127,0,534.8,2976,68.740961,76.28111093,0,269.3,2976,-9.357453142,0.040944647,-9.5,-9.26,2976,-5.281085332,52.77809621,-83.1,140.5,2976,50
CAAM,11/1/99,268.166736,191.5680971,2.6,736,2880,137.6882293,98.12693408,1.6,425.7,2880,-9.38110072,0.122392486,-10.6,-9.26,2880,41.88122918,65.3876329,-101.3,226,2880,10
CAAM,12/1/99,346.939395,197.4022369,21,899,2975,188.2109543,105.0396162,10.4,515.9,2976,-9.591821176,0.249795601,-11.2,-9.28,2976,55.59325943,70.27623248,-166.5,302.8,2976,52
CAAM,1/1/00,323.1314184,196.7498112,27.4,934,2976,174.2012768,103.0508807,15.6,612.3,2976,-9.702617913,0.355639692,-11.66,-9.3,1505,60.26169453,70.57780698,-136.2,257.3,1505,25
CAAM,2/1/00,188.8292384,174.2758851,0.3,736,2784,112.0475216,102.6288408,0,429.4,2784,,,,,0,,,,,0,0
CAAM,3/1/00,41.15997986,66.04687807,0,412.4,2976,26.69472445,41.61899168,0,238.8,2976,,,,,0,,,,,0,811
CAAM,4/1/00,4.632048623,11.32495446,0,109.8,2880,2.865208336,7.373208312,0,82.6,2880,,,,,0,,,,,0,979
CAAM,5/1/00,0.011948405,0.07796089,0,0.9,2946,0.005227427,0.036201182,0,0.4,2946,,,,,0,,,,,0,1988
CAAM,6/1/00,0,0,0,0,2880,0.000451389,0.006704532,0,0.1,2880,,,,,0,,,,,0,2038
CAAM,7/1/00,3.39E-05,0.001842399,0,0.1,2946,0.000644942,0.009553257,0,0.2,2946,,,,,0,,,,,0,1666
CAAM,8/1/00,1.366901882,4.021421191,0,43.6,2976,0.654166667,1.922831274,0,19.1,2976,,,,,0,,,,,0,1188
CAAM,9/1/00,16.58354168,29.61337625,0,255.4,2880,9.213229162,15.71329863,0,122.6,2880,,,,,0,,,,,0,807
CAAM,10/1/00,139.7858871,155.7754964,0,639,2976,84.63830644,96.45765684,0,397.5,2976,,,,,0,,,,,0,145
CAAM,11/1/00,252.4565671,184.4964789,11.4,775,2878,138.0385337,101.6283146,5.2,433.5,2878,,,,,0,,,,,0,49
CAAM,12/1/00,340.8041664,205.3750009,32.7,997,2976,225.8400874,126.9431854,21.3,691.2,2976,,,,,0,,,,,0,84
CAAM,1/1/01,310.7534613,191.0605226,20.3,828,2976,242.4290994,139.9926446,15.4,656.3,2976,,,,,0,,,,,0,114
CAAM,2/1/01,181.2128814,172.2514382,0.3,748,2655,111.3433522,101.1292995,0.2,451.2,2655,,,,,0,,,,,0,52
CAAM,3/1/01,39.50971098,67.18448267,0,369.1,2976,28.63995295,47.97665869,0,264.5,2976,,,,,0,,,,,0,496
CAAM,4/1/01,2.983263891,6.580560527,0,52,2880,2.764444445,6.708071873,0,57.9,2880,,,,,0,,,,,0,1289
CAAM,5/1/01,0.008534946,0.059247984,0,0.7,2976,0.005947581,0.043404403,0,0.4,2976,,,,,0,,,,,0,2114
CAAM,6/1/01,0,0,0,0,2846,0.000281096,0.005295325,0,0.1,2846,,,,,0,,,,,0,1889
CAAM,7/1/01,0.000436828,0.007979641,0,0.2,2976,0.000840054,0.010173286,0,0.2,2976,,,,,0,,,,,0,1733
CAAM,8/1/01,1.104704301,3.666253737,0,37.6,2976,0.867909948,2.722338679,0,24.6,2976,,,,,0,,,,,0,1819
CAAM,9/1/01,19.43267361,33.33917164,0,202.9,2880,12.58611111,20.71873305,0,130.6,2880,,,,,0,,,,,0,944
CAAM,10/1/01,129.5562836,148.0666729,0,640.6,2976,74.91969085,82.96401455,0,315,2976,,,,,0,,,,,0,196
CAAM,11/1/01,288.0076042,192.9542745,12.6,867,2880,149.3279861,93.4244622,8,415.6,2880,,,,,0,,,,,0,23
CAAM,12/1/01,351.9530251,204.7744304,19.4,913,2942,207.1351804,111.1046789,12,540.4,2942,,,,,0,,,,,0,116
CAAM,1/1/02,294.0063864,201.3047471,16.1,889,2975,206.2458822,130.9248834,12.4,685.1,2975,,,,,0,,,,,0,86
CAAM,2/1/02,161.0919644,154.8045356,0.2,631.8,2688,116.8411458,109.9731088,0.2,468.8,2688,,,,,0,,,,,0,72
CAAM,3/1/02,37.93840722,64.38683896,0,402.2,2976,29.36932119,45.72892633,0,247.3,2976,,,,,0,,,,,0,1112
CAAM,4/1/02,3.161423615,6.84116233,0,59.5,2880,2.439965282,5.193376569,0,42.1,2880,,,,,0,,,,,0,1749
CAAM,5/1/02,0.010383065,0.062896911,0,0.8,2976,0.006384409,0.041963155,0,0.5,2976,,,,,0,,,,,0,2574
CAAM,6/1/02,0.0003125,0.007211362,0,0.2,2880,0.000381944,0.007674787,0,0.2,2880,,,,,0,,,,,0,2617
CAAM,7/1/02,0.000504032,0.007082799,0,0.1,2976,0.000201613,0.004486358,0,0.1,2976,,,,,0,,,,,0,2627
CAAM,8/1/02,0.949395162,3.25981383,0,32.1,2976,0.685987904,2.292635321,0,21.7,2976,,,,,0,,,,,0,2008
CAAM,9/1/02,15.61968751,28.82739016,0,212.2,2880,12.61965279,21.48073971,0,162.5,2880,,,,,0,,,,,0,1353
CAAM,10/1/02,117.0772849,134.8633303,0,532.2,2976,88.23007393,100.1564032,0,386.9,2976,,,,,0,,,,,0,267
CAAM,11/1/02,265.6946874,180.1044447,5.9,754,2880,188.4939584,120.8320603,4.6,566.6,2880,,,,,0,,,,,0,94
CAAM,12/1/02,315.3167856,191.2885133,8.2,805,2943,219.7589195,124.9582608,6.1,596.2,2943,,,,,0,,,,,0,158
CAAM,1/1/03,246.3172437,177.9891519,9.5,888,2975,165.6014118,119.5428565,6.9,653.7,2975,,,,,0,,,,,0,42
CAAM,2/1/03,169.7085937,158.578036,0.3,592.9,2688,120.4167782,113.7083336,0,398.7,2688,,,,,0,,,,,0,96
CAAM,3/1/03,38.88655913,58.49615307,0,323,2976,33.07815863,52.565811,0,281.1,2976,,,,,0,,,,,0,1039
CAAM,4/1/03,3.526423614,8.400808764,0,74.8,2880,2.71309028,6.268168777,0,67.8,2880,,,,,0,,,,,0,1180
CAAM,5/1/03,0.013205645,0.088632976,0,1.3,2976,0.008635753,0.062679823,0,1.1,2976,,,,,0,,,,,0,2023
CAAM,6/1/03,0.000381944,0.006708848,0,0.2,2880,0.000694444,0.009477696,0,0.2,2880,,,,,0,,,,,0,1869
CAAM,7/1/03,0.000672043,0.008171603,0,0.1,2976,0.000201613,0.004486358,0,0.1,2976,,,,,0,,,,,0,2128
CAAM,8/1/03,0.888911292,2.850037539,0,25.8,2976,0.525571237,1.604808326,0,13.9,2976,,,,,0,,,,,0,1990
CAAM,9/1/03,17.21440972,30.27826922,0,216.6,2880,10.82760417,18.54051429,0,124.3,2880,,,,,0,,,,,0,1349
CAAM,10/1/03,116.7527555,137.8263415,0,569.4,2976,63.07899854,74.60697382,0,293.8,2976,,,,,0,,,,,0,179
CAAM,11/1/03,249.357257,168.3949281,10.1,635.9,2880,127.9097223,84.16964331,5,363.2,2880,,,,,0,,,,,0,9
CAAM,12/1/03,315.8987903,186.2043605,24.3,817,2976,227.1478496,129.6016447,12.9,614.6,2976,,,,,0,,,,,0,185
CAAM,1/1/04,302.9461332,182.1393258,20.3,761,2974,221.1075294,128.8459113,13.4,570.4,2975,,,,,0,,,,,0,90
CAAM,2/1/04,175.7842312,161.2669152,0.3,618.6,2784,120.9174569,107.5646275,0.2,388.1,2784,,,,,0,,,,,0,181
CAAM,3/1/04,38.87352146,66.21210864,0,378.7,2976,30.28387095,52.01479905,0,297.4,2976,,,,,0,,,,,0,944
CAAM,4/1/04,3.730625004,9.155665114,0,65.8,2880,2.411944439,5.848557329,0,43.3,2880,,,,,0,,,,,0,1338
CAAM,5/1/04,0.016498656,0.097083377,0,1.2,2976,0.008266129,0.051845451,0,0.6,2976,,,,,0,,,,,0,1893
CAAM,6/1/04,0.000798611,0.009284272,0,0.2,2880,0.001319444,0.013112203,0,0.2,2880,,,,,0,,,,,0,2050
CAAM,7/1/04,0.000235215,0.004845004,0,0.1,2976,0.000638441,0.009852474,0,0.2,2976,,,,,0,,,,,0,2149
CAAM,8/1/04,1.008870967,2.930162224,0,23.7,2976,0.566767472,1.951275668,0,21.6,2976,,,,,0,,,,,0,1248
CAAM,9/1/04,20.26326388,32.87581161,0,226.9,2880,14.67996526,24.53425765,0,159.9,2880,,,,,0,,,,,0,833
CAAM,10/1/04,123.0149528,139.5698914,0,544.3,2976,79.72100134,94.46156778,0,413.9,2976,,,,,0,,,,,0,141
CAAM,11/1/04,257.7461271,171.4693568,8.5,676.9,2879,133.9177778,85.30760958,4.2,348.3,2880,,,,,0,,,,,0,27
CAAM,12/1/04,284.3253359,180.9963303,25.7,741,2976,179.8199934,107.8528697,20.9,607.5,2976,,,,,0,,,,,0,127
CAAM,1/1/05,252.0914113,171.3251037,9,720,2976,207.1354166,136.3705135,7.1,564.3,2976,,,,,0,,,,,0,171
CAAM,2/1/05,157.2225223,153.9418851,0.29,567.4,2688,134.3500371,120.9142823,0.3,494.6,2688,,,,,0,,,,,0,627
CAAM,3/1/05,38.39142473,61.89682525,0,347.7,2976,31.03736562,49.25848032,0,277.4,2976,,,,,0,,,,,0,878
CAAM,4/1/05,4.032763881,9.764796691,0,67.92,2880,3.195034724,7.434219094,0,50.9,2880,,,,,0,,,,,0,1586
CAAM,5/1/05,0.015325941,0.103712732,0,1.4,2976,0.010987903,0.078109374,0,1.1,2976,,,,,0,,,,,0,2121
CAAM,6/1/05,0.001986111,0.024345831,0,0.61,2880,0.001493056,0.017117577,0,0.4,2880,,,,,0,,,,,0,2031
CAAM,7/1/05,0.000907258,0.017961213,0,0.64,2976,0.000571237,0.013080602,0,0.5,2976,,,,,0,,,,,0,2086
CAAM,8/1/05,1.02733871,3.103518669,0,29.09,2976,0.633501347,1.924257366,0,18.1,2976,,,,,0,,,,,0,1633
CAAM,9/1/05,14.19975347,26.56086693,0,212.7,2880,9.097986114,16.45499666,0,122.2,2880,,,,,0,,,,,0,924
CAAM,10/1/05,120.9774393,139.2283072,0,495.5,2976,65.94314518,73.45735931,0,247.8,2976,,,,,0,,,,,0,155
CAAM,11/1/05,263.7581146,173.7688458,9.37,642.3,2880,138.7455208,89.01514014,4.7,399.4,2880,,,,,0,,,,,0,28
CAAM,12/1/05,299.9965481,178.4327013,26.52,791,2975,195.7593949,114.1125343,17.7,575.8,2975,,,,,0,,,,,0,72
CAAM,1/1/06,271.7183872,176.823325,13.07,932,2976,174.7617877,111.383276,8.08,541.8,2976,,,,,0,,,,,0,70
CAAM,2/1/06,162.144241,152.6569045,0.15,539,2688,115.8645088,104.0178767,0.2,390.9,2688,,,,,0,,,,,0,268
CAAM,3/1/06,36.3261929,59.93938021,0,366.3,2976,28.17537634,45.12593966,0,284.4,2976,,,,,0,,,,,0,1016
CAAM,4/1/06,3.254614582,7.42438904,0,79.6,2880,2.395190972,5.556175665,0,58.09,2880,,,,,0,,,,,0,1554
CAAM,5/1/06,0.01531586,0.109919914,0,1.42,2976,0.007775538,0.062673421,0,0.91,2976,,,,,0,,,,,0,2418
CAAM,6/1/06,0.002333333,0.022300172,0,0.53,2880,0.001701389,0.017215541,0,0.41,2880,,,,,0,,,,,0,2319
CAAM,7/1/06,0.002852823,0.027437811,0,0.63,2976,0.00172043,0.02036467,0,0.65,2976,,,,,0,,,,,0,2539
CAAM,8/1/06,1.010430105,2.955848304,0,22,2976,0.780456989,2.621357347,0,25.91,2976,,,,,0,,,,,0,1923
CAAM,9/1/06,16.18582639,27.01347645,0,186.6,2880,12.4327014,22.02598904,0,174,2880,,,,,0,,,,,0,1305
CAAM,10/1/06,112.4413374,127.8924033,0,521,2976,80.82867951,92.70392798,0,370.1,2976,,,,,0,,,,,0,227
CAAM,11/1/06,265.8545502,171.0241196,10.09,761,2879,197.3538103,124.3384846,6.89,576,2879,,,,,0,,,,,0,205
CAAM,12/1/06,323.2188172,185.1764146,31.2,883,2976,199.9594424,114.248819,27.7,541.6,2976,,,,,0,,,,,0,75
CAAM,1/1/07,290.7448591,178.0571003,19.4,784,2976,180.6272849,106.1241081,13.6,508.6,2976,,,,,0,,,,,0,72
CAAM,2/1/07,148.2655507,141.0036508,0.1,649.8,2688,103.6215775,91.79533516,0.3,390.2,2688,,,,,0,,,,,0,340
CAAM,3/1/07,39.5547715,66.60031301,0,412.8,2976,33.352957,56.31320226,0,369.5,2976,,,,,0,,,,,0,800
CAAM,4/1/07,3.815555559,8.566278459,0,67.1,2880,3.129791666,6.811036133,0,47.9,2880,,,,,0,,,,,0,1357
CAAM,5/1/07,0.026008065,0.223017486,0,4.9,2976,0.020564516,0.198143868,0,5.1,2976,,,,,0,,,,,0,2226
CAAM,6/1/07,0,0,0,0,2406,0.000955943,0.011312998,0,0.2,2406,,,,,0,,,,,0,1802
CAAM,11/1/07,273.4276722,169.4828508,22,731,2049,177.0617377,106.6440302,15.2,521.8,2049,,,,,0,,,,,0,43
CAAM,12/1/07,315.9542342,184.6613745,28.7,826,2976,199.4423049,109.6446362,18.5,568,2976,,,,,0,,,,,0,71
CAAM,1/1/08,286.5171451,173.0621578,24.6,864,2473,215.9566114,125.8250808,18.8,600.8,2473,,,,,0,,,,,0,93
CAAM,10/1/08,118.468187,128.1502502,0,488.7,2587,65.81766516,68.53766607,0,253.9,2587,,,,,0,,,,,0,250
CAAM,11/1/08,281.2128345,171.0497115,4.5,750,2875,144.2779476,83.61625013,2.7,356.5,2875,,,,,0,,,,,0,39
CAAM,12/1/08,367.0762019,190.7322911,25.3,918,2975,211.6658152,103.9718399,18.5,551.2,2975,,,,,0,,,,,0,111
CAAM,1/1/09,273.2483201,167.5104109,16.9,832,2976,193.2565524,108.1260142,11.3,508.2,2976,,,,,0,,,,,0,133
CAAM,2/1/09,156.0813615,144.3098993,0.2,555.6,2688,117.7620536,105.9254594,0.2,394.8,2688,,,,,0,,,,,0,190
CAAM,3/1/09,35.23612228,60.43366325,0,388.9,2976,28.09855508,46.07565144,0,296.7,2976,,,,,0,,,,,0,865
CAAM,4/1/09,3.542673614,8.556252496,0,72.9,2880,2.664965271,6.407448714,0,57.6,2880,,,,,0,,,,,0,1596
CAAM,5/1/09,0.012130377,0.084479811,0,1.2,2976,0.009038979,0.059428233,0,0.8,2976,,,,,0,,,,,0,1417
CAAM,6/1/09,3.47E-05,0.00186339,0,0.1,2880,0.001284722,0.01215345,0,0.2,2880,,,,,0,,,,,0,2256
CAAM,7/1/09,6.72E-05,0.002591944,0,0.1,2976,0.001512097,0.01247782,0,0.2,2976,,,,,0,,,,,0,2594
CAAM,8/1/09,1.033400537,3.027137754,0,25.3,2976,0.793380378,2.310544312,0,18.4,2976,,,,,0,,,,,0,1872
CAAM,9/1/09,16.01625,27.80330684,0,186.6,2880,11.67975695,20.27136302,0,177.3,2880,,,,,0,,,,,0,1195
CAAM,10/1/09,119.4447245,130.5516265,0,480.4,2976,81.63044351,86.57733831,0,334.6,2976,,,,,0,,,,,0,271
CAAM,11/1/09,257.137257,174.6211196,3.9,771,2880,193.9105556,128.3313029,2.5,567.9,2880,,,,,0,,,,,0,311
CAAM,12/1/09,322.283367,190.3282713,27.9,834,2976,214.7608871,118.6756298,17.9,594.2,2976,,,,,0,,,,,0,1
CAAM,1/1/10,270.5601815,169.5401454,16.5,721,2976,202.9674395,122.1922313,11.2,611,2976,,,,,0,,,,,0,93
CAAM,2/1/10,148.4412947,146.7696614,0.2,551,2688,107.2195314,96.30571516,0.1,347.8,2688,,,,,0,,,,,0,445
CAAM,3/1/10,37.91794358,62.16031668,0,369.2,2976,27.79492611,42.86968453,0,249.1,2976,,,,,0,,,,,0,791
CAAM,4/1/10,3.732187504,8.381928374,0,67.7,2880,2.651145836,5.905733278,0,45.9,2880,,,,,0,,,,,0,1074
CAAM,5/1/10,0.017506721,0.109786503,0,1.2,2976,0.010887097,0.065458328,0,0.8,2976,,,,,0,,,,,0,2025
CAAM,6/1/10,3.47E-05,0.00186339,0,0.1,2880,0.000555556,0.007434118,0,0.1,2880,,,,,0,,,,,0,2373
CAAM,7/1/10,0,0,0,0,2976,0.000974462,0.010802646,0,0.2,2976,,,,,0,,,,,0,2413
CAAM,8/1/10,0.752553764,2.20490367,0,19.6,2976,0.884408604,2.847500845,0,24.6,2976,,,,,0,,,,,0,2045
CAAM,9/1/10,16.81871528,27.85699593,0,193.7,2880,12.8065972,22.17727895,0,172.3,2880,,,,,0,,,,,0,1276
CAAM,10/1/10,122.1810482,134.1186503,0,483.5,2976,74.03632398,78.88003174,0,295.3,2976,,,,,0,,,,,0,175
CAAM,11/1/10,290.0382985,176.7602085,10.6,901,2880,155.102361,87.98921979,5.8,474.4,2880,,,,,0,,,,,0,12
CAAM,12/1/10,341.8950729,179.3487367,27.3,832,2963,210.7789066,106.3956098,15.1,481.1,2963,,,,,0,,,,,0,13
CAAM,1/1/11,235.3332663,159.7301534,14.8,855,2976,204.6364248,141.1695267,13.3,770,2976,,,,,0,,,,,0,593
CAAM,2/1/11,151.5081473,145.7124651,0.4,650.7,2688,133.7984747,129.7713382,0.2,570.4,2688,,,,,0,,,,,0,2688
CAAM,3/1/11,38.70608198,59.33140673,0,324.3,2976,33.42940193,52.30902696,0,330.7,2976,,,,,0,,,,,0,2976
CAAM,4/1/11,3.248645831,7.841804989,0,70.7,2880,3.001701392,6.950433901,0,55.7,2880,,,,,0,,,,,0,2880
CAAM,5/1/11,0.014784946,0.102979909,0,1.6,2976,0.011021506,0.075678433,0,1.2,2976,,,,,0,,,,,0,2976
CAAM,6/1/11,0,0,0,0,2880,6.94E-05,0.002634774,0,0.1,2880,,,,,0,,,,,0,2880
CAAM,7/1/11,0,0,0,0,2976,0.000134409,0.003664329,0,0.1,2976,,,,,0,,,,,0,2976
CAAM,8/1/11,1.040793014,3.570764019,0,41.9,2976,0.717641131,2.383091976,0,24.1,2976,,,,,0,,,,,0,2976
CAAM,9/1/11,16.06430553,28.61807312,0,211.5,2880,12.05611111,19.8775876,0,135.9,2880,,,,,0,,,,,0,2880
CAAM,10/1/11,112.9295699,133.1330954,0,502.2,2976,70.31670021,81.47311611,0,297.4,2976,,,,,0,,,,,0,2976
CAAM,11/1/11,271.0369443,176.8345478,4.3,697.4,2880,145.1390624,100.7457467,2.5,583.3,2880,,,,,0,,,,,0,2880
CAAM,12/1/11,330.2986224,194.1844206,30.1,833,2976,222.6627015,131.5557659,23.8,565.2,2976,,,,,0,,,,,0,2976
CAAM,1/1/12,297.2922351,177.9621343,15.1,874,2975,229.1425739,138.8814248,11.3,676,2976,,,,,0,,,,,0,2976
CAAM,2/1/12,166.2797772,156.0519819,0.2,540.6,2784,129.1123563,119.0150567,0.1,410.1,2784,,,,,0,,,,,0,2784
CAAM,3/1/12,36.79667339,60.17546684,0,348,2976,27.75547718,44.76749971,0,248.3,2976,,,,,0,,,,,0,2976
CAAM,4/1/12,2.962361111,6.307562306,0,54,2880,2.048576391,4.438517286,0,40.2,2880,,,,,0,,,,,0,2880
CAAM,5/1/12,0.00967742,0.063036047,0,0.6,2976,0.008098118,0.060459962,0,0.8,2976,,,,,0,,,,,0,2976
CAAM,6/1/12,6.94E-05,0.002634774,0,0.1,2880,0.000138889,0.003724838,0,0.1,2880,,,,,0,,,,,0,2880
CAAM,7/1/12,3.36E-05,0.001833089,0,0.1,2976,0,0,0,0,2976,,,,,0,,,,,0,2976
CAAM,8/1/12,0.896774194,2.955917522,0,23.7,2976,0.696370969,2.34303838,0,17.4,2976,,,,,0,,,,,0,2976
CAAM,9/1/12,17.40364584,28.74195801,0,201.5,2880,10.23715277,17.6580485,0,141,2880,,,,,0,,,,,0,2880
CAAM,10/1/12,116.0335349,131.0936097,0,491.1,2976,78.79280908,101.9418204,0,458.2,2976,,,,,0,,,,,0,2976
CAAM,11/1/12,282.7799999,176.5297042,11.9,694,2880,181.8800002,130.0178912,9.5,562.9,2880,,,,,0,,,,,0,2880
CAAM,12/1/12,279.0959675,169.421624,32.6,900,2976,215.5840389,139.0421706,23.5,743,2976,,,,,0,,,,,0,2976
CAAM,1/1/13,281.1443887,170.7552276,14,795,2976,238.5114247,151.1623635,13.1,673.3,2976,,,,,0,,,,,0,2976
CAAM,2/1/13,161.6631326,147.156995,0,665.1,2688,151.9404762,141.5168888,0.2,644,2688,,,,,0,,,,,0,2688
CAAM,3/1/13,39.365289,61.67560527,0,376.2,2976,38.79643819,60.15414131,0,372.3,2976,,,,,0,,,,,0,2976
CAAM,4/1/13,2.824479167,5.768251135,0,39.4,2880,2.983125,6.163357977,0,46.3,2880,,,,,0,,,,,0,2880
CAAM,5/1/13,0.010954301,0.068164138,0,0.8,2976,0.009576613,0.058602971,0,0.8,2976,,,,,0,,,,,0,2976
CAAM,6/1/13,0,0,0,0,2880,6.94E-05,0.002634774,0,0.1,2880,,,,,0,,,,,0,2880
CAAM,7/1/13,0.000369624,0.006069442,0,0.1,2976,0,0,0,0,2976,,,,,0,,,,,0,2976
CAAM,8/1/13,1.200067205,4.154454935,0,45.3,2976,0.866061828,3.286809502,0,36.4,2976,,,,,0,,,,,0,2976
CAAM,9/1/13,15.89781251,27.38082069,0,191.5,2880,11.11583335,18.19009826,0,113.5,2880,,,,,0,,,,,0,2880
CAAM,10/1/13,109.056418,126.0065956,0,474.4,2976,84.18659268,102.3174174,0,464,2976,,,,,0,,,,,0,2976
CAAM,11/1/13,264.3530208,171.1155759,7.5,693.5,2880,134.8723167,89.50531244,4.4,345.8,2879,,,,,0,,,,,0,2880
CAAM,12/1/13,325.5099127,180.4236757,27.2,856,2976,197.9108534,110.9008844,14.9,564.9,2976,,,,,0,,,,,0,2976
CAAM,1/1/14,286.9177351,185.8146334,13.21,864,2976,186.0234746,118.6030805,11.61,559,2976,,,,,0,,,,,0,2976
CAAM,2/1/14,143.4082962,144.8397362,0.4,676.9,2688,95.38260419,98.89628614,0.01,443.5,2688,,,,,0,,,,,0,2688
CAAM,3/1/14,35.9566465,58.09208436,0,349.4,2976,29.29803092,46.44361118,0,263.4,2976,,,,,0,,,,,0,2976
CAAM,4/1/14,3.910718747,9.348229691,0,81.7,2880,2.907892365,6.839972142,0,55.63,2880,,,,,0,,,,,0,2880
CAAM,5/1/14,0.013232527,0.08965162,0,1.21,2976,0.008793683,0.068388336,0,0.98,2976,,,,,0,,,,,0,2976
CAAM,6/1/14,0.000135417,0.002404637,0,0.08,2880,0,0,0,0,2880,,,,,0,,,,,0,2880
CAAM,7/1/14,0.000245296,0.002689596,0,0.06,2976,1.34E-05,0.000579615,0,0.03,2976,,,,,0,,,,,0,2976
CAAM,8/1/14,0.862987229,2.977397079,0,33.11,2976,0.478225807,1.633542425,0,17.34,2976,,,,,0,,,,,0,2976
CAAM,9/1/14,15.97978819,27.33731908,0,182.3,2880,9.639833338,17.16447811,0,148.3,2880,,,,,0,,,,,0,2880
CAAM,10/1/14,97.05232857,112.7763109,0,467.6,2976,56.84692874,64.7122188,0,329.3,2976,,,,,0,,,,,0,2976
CAAM,11/1/14,253.0598991,168.5244771,10,794,2870,143.97577,107.2289356,5.19,539.8,2870,,,,,0,,,,,0,1004
CAAM,12/1/14,307.363098,174.9424785,29.3,847,2976,178.1672179,108.8054202,23.36,655.3,2976,,,,,0,,,,,0,0
CAAM,1/1/15,257.3568482,157.4921285,20.79,690.7,2976,194.178686,132.1074027,15.4,600.3,2976,,,,,0,,,,,0,0
CAAM,2/1/15,142.543326,135.5468682,0,661.8,2688,101.1772061,98.4527769,0,456.5,2688,,,,,0,,,,,0,0
CAAM,3/1/15,34.69736563,58.79445477,0,354.9,2976,25.36675069,42.78406957,0,243,2976,,,,,0,,,,,0,0
CAAM,4/1/15,3.349031252,7.807041868,0,65.24,2880,3.149621529,7.848556493,0,57.88,2880,,,,,0,,,,,0,0
CAAM,5/1/15,0.014022177,0.094172298,0,1.43,2976,0.010389785,0.066124781,0,0.99,2976,,,,,0,,,,,0,0
CAAM,6/1/15,5.56E-05,0.001019285,0,0.03,2880,0.000135417,0.003230584,0,0.12,2880,,,,,0,,,,,0,0